Flag for Germany Weather past 2 weeks in Schwäbisch Hall, Baden-Württemberg, Germany

Now
47 °F

Rain. Overcast.


Feels Like: 43 °F
Forecast: 39 / 59 °F
Wind: 7 mph from Northwest

Location: Oehringen

Current Time: Sep 22, 2014 at 6:19:47 PM

Latest Report: Sep 22, 2014 at 5:00 PM


Visibility: 1 mi

Pressure: 30.11 "Hg

Humidity: 91%

Dew point: 44 °F

Location of Schwäbisch HallLocation

Historic Weather in Schwäbisch Hall — Graph

°F

Schwäbisch Hall temperature yesterday

Maximum temperature yesterday: 64 °F (at 1:00 PM)
Minimum temperature yesterday: 56 °F (at 9:00 PM)
Average temperature yesterday: 60 °F

Past Weeks' High & Low Weather Summary

 TemperatureHumidityPressure
High79 °F (Sep 8, 5:00 PM)99% (Sep 12, 3:00 PM)30.16 "Hg (Sep 12, 3:00 PM)
Low47 °F (Sep 22, 5:00 PM)45% (Sep 10, 4:00 PM)29.84 "Hg (Sep 18, 4:00 PM)
Average61 °F84%30.00 "Hg
* Reported Sep 7 5:00 PM — Sep 22 5:00 PM, Schwäbisch Hall, Weather by CustomWeather, © 2014

Note: Actual official high and low records may vary slightly from our data, if they occured in-between our weather recording intervals... More about our weather records

Advertising

Schwäbisch Hall weather history for previous 24 hours

 ConditionsComfort  
Time TempWeatherWind HumidityBarometerVisibility
5:00 PM
Sep 22
47 °FRain. Overcast.7 mph91%30.11 "Hg1 mi
4:00 PM54 °FScattered clouds.6 mph85%30.05 "Hg4 mi
3:00 PM54 °FRain. Overcast.7 mph79%30.05 "Hg2 mi
2:00 PM56 °FOvercast.7 mph74%30.06 "Hg6 mi
1:00 PM54 °FOvercast.6 mph79%30.08 "Hg6 mi
12:00 PM54 °FOvercast.7 mph82%30.10 "Hg6 mi
11:00 AM53 °FFog.6 mph87%30.12 "Hg4 mi
10:00 AM52 °FFog.5 mph90%30.12 "Hg3 mi
9:00 AM51 °FFog.5 mph96%30.12 "Hg2 mi
8:00 AM50 °FFog.3 mph96%30.12 "Hg2 mi
7:00 AM49 °FFog.2 mph97%30.11 "Hg2 mi
6:00 AM49 °FFog.2 mph97%30.11 "Hg2 mi
5:00 AM51 °FFog.2 mph96%30.10 "Hg2 mi
4:00 AM52 °FFog.2 mph97%30.10 "Hg2 mi
3:00 AM52 °FFog.2 mph96%30.10 "Hg4 mi
2:00 AM53 °FFog.3 mph95%30.09 "Hg4 mi
1:00 AM54 °FPassing clouds.3 mph94%30.08 "Hg7 mi
12:00 AM56 °FOvercast.3 mph95%30.07 "Hg6 mi
11:00 PM
Sep 21
56 °FOvercast.3 mph97%30.05 "Hg6 mi
10:00 PM56 °FLow clouds.3 mph97%30.03 "Hg4 mi
9:00 PM56 °FLight rain. Low clouds.3 mph98%30.03 "Hg3 mi
8:00 PM56 °FLight rain. Overcast.2 mph92%30.00 "Hg6 mi
7:00 PM57 °FLight rain. Overcast.2 mph92%29.98 "Hg5 mi
6:00 PM58 °FLight rain. Overcast.5 mph92%29.96 "Hg5 mi
Weather by CustomWeather, © 2014

See weather overviewHow to use our weather pages